Location: Kitchener-Waterloo
(43.4500°N, 80.5000°W)
Time: 23:29:17
(UTC-04:00)

ISS - All Passes

Search period start: 16 September 2014 00:00
Search period end: 26 September 2014 00:00
Orbit: 414 x 417 km, 51.6° (Epoch: 16 September)

Date Brightness Start Highest point End Pass type
(mag) Time Alt. Az. Time Alt. Az. Time Alt. Az.
16 Sep - 04:52:41 10° SW 04:55:55 50° SE 04:59:10 10° ENE visible
16 Sep - 06:29:45 10° W 06:32:46 31° NNW 06:35:48 10° NE visible
16 Sep - 08:07:42 10° NW 08:10:13 19° N 08:12:44 10° NE daylight
16 Sep - 09:44:35 10° NW 09:47:38 32° NNE 09:50:41 10° E daylight
16 Sep - 11:21:14 10° WNW 11:24:27 46° SW 11:27:39 10° SE daylight
17 Sep - 04:04:23 10° SSW 04:07:19 29° SE 04:10:16 10° ENE visible
17 Sep - 05:40:45 10° W 05:43:57 43° NNW 05:47:10 10° NE visible
17 Sep - 07:18:43 10° NW 07:21:17 20° N 07:23:50 10° NE daylight
17 Sep - 08:55:55 10° NW 08:58:47 26° NNE 09:01:38 10° ENE daylight
17 Sep - 10:32:27 10° WNW 10:35:47 80° SW 10:39:07 10° SE daylight
17 Sep - 12:11:18 10° WSW 12:11:59 11° SW 12:12:40 10° SW daylight
18 Sep - 03:16:26 10° S 03:18:44 18° SE 03:21:03 10° E visible
18 Sep - 04:51:50 10° WSW 04:55:09 65° NNW 04:58:28 10° NE visible
18 Sep - 06:29:39 10° WNW 06:32:20 22° N 06:35:01 10° NE visible
18 Sep - 08:07:10 10° NW 08:09:51 22° N 08:12:31 10° ENE daylight
18 Sep - 09:43:43 10° NW 09:47:02 63° NNE 09:50:20 10° ESE daylight
18 Sep - 11:21:06 10° W 11:23:27 18° SW 11:25:48 10° S daylight
19 Sep - 02:29:43 10° SE 02:30:11 10° SE 02:30:40 10° ESE night (unlit)
19 Sep - 04:03:03 10° SW 04:06:22 78° SE 04:09:43 10° ENE visible
19 Sep - 05:40:30 10° WNW 05:43:22 26° NNW 05:46:15 10° NE visible
19 Sep - 07:18:18 10° NW 07:20:51 20° N 07:23:25 10° NE daylight
19 Sep - 08:54:59 10° NW 08:58:11 42° NNE 09:01:23 10° E daylight
19 Sep - 10:31:52 10° WNW 10:34:50 30° SW 10:37:47 10° SSE daylight
20 Sep - 03:14:25 10° SW 03:17:37 45° SE 03:20:49 10° ENE visible
20 Sep - 04:51:21 10° W 04:54:25 33° NNW 04:57:29 10° NE visible
20 Sep - 06:29:18 10° NW 06:31:49 19° N 06:34:20 10° NE visible
20 Sep - 08:06:14 10° NW 08:09:15 31° NNE 08:12:16 10° E daylight
20 Sep - 09:42:51 10° WNW 09:46:06 52° SW 09:49:20 10° SE daylight
21 Sep - 02:26:02 10° SSW 02:28:53 27° SE 02:31:44 10° ENE night (unlit)
21 Sep - 04:02:14 10° W 04:05:28 46° NNW 04:08:42 10° NE visible
21 Sep - 05:40:11 10° WNW 05:42:45 20° N 05:45:20 10° NE visible
21 Sep - 07:17:25 10° NW 07:20:15 25° NNE 07:23:04 10° ENE daylight
21 Sep - 08:53:57 10° WNW 08:57:17 88° SW 09:00:37 10° SE daylight
21 Sep - 10:32:15 10° WSW 10:33:31 12° SW 10:34:47 10° SSW daylight
22 Sep - 01:38:04 10° S 01:40:10 16° SE 01:42:18 10° E night (unlit)
22 Sep - 03:13:13 10° WSW 03:16:32 71° NNW 03:19:52 10° NE visible
22 Sep - 04:50:57 10° WNW 04:53:40 23° NNW 04:56:24 10° NE visible
22 Sep - 06:28:31 10° NW 06:31:10 21° N 06:33:49 10° ENE visible
22 Sep - 08:05:05 10° NW 08:08:23 58° NNE 08:11:40 10° ESE daylight
22 Sep - 09:42:20 10° W 09:44:50 20° SW 09:47:20 10° S daylight
23 Sep - 02:24:19 10° SW 02:27:37 70° SE 02:30:57 10° ENE night (unlit)
23 Sep - 04:01:40 10° WNW 04:04:35 27° NNW 04:07:29 10° NE visible
23 Sep - 05:39:30 10° NW 05:42:03 20° N 05:44:35 10° NE visible
23 Sep - 07:16:13 10° NW 07:19:23 39° NNE 07:22:33 10° E daylight
23 Sep - 08:53:01 10° WNW 08:56:04 33° SW 08:59:05 10° SSE daylight
24 Sep - 01:35:36 10° SSW 01:38:44 40° SE 01:41:54 10° ENE night (unlit)
24 Sep - 03:12:23 10° W 03:15:29 35° NNW 03:18:36 10° NE visible
24 Sep - 04:50:21 10° NW 04:52:52 20° N 04:55:23 10° NE visible
24 Sep - 06:27:20 10° NW 06:30:19 29° NNE 06:33:17 10° E visible
24 Sep - 08:03:54 10° WNW 08:07:11 58° SW 08:10:28 10° SE daylight
25 Sep - 00:47:09 10° SSW 00:49:53 24° SE 00:52:38 10° E night (unlit)
25 Sep - 02:23:09 10° WSW 02:26:24 50° NNW 02:29:40 10° NE night (unlit)
25 Sep - 04:01:04 10° WNW 04:03:40 21° N 04:06:16 10° NE visible
25 Sep - 05:38:22 10° NW 05:41:09 24° NNE 05:43:56 10° ENE visible
25 Sep - 07:14:53 10° WNW 07:18:14 84° NNE 07:21:33 10° ESE daylight
25 Sep - 08:52:50 10° W 08:54:30 13° SW 08:56:09 10° SSW daylight
25 Sep - 23:59:12 10° SSE 00:00:15 13° SSE 00:00:00 13° SSE night (unlit)
